Location: Aldenham
(51.6667°N, 0.3500°W)
Time: 07:55:01
(UTC+00:00)

Explorer 7 - Pass Details

Date: 18 February 2026
Orbit: 430 x 541 km, 50.2° (Epoch: 12 March)

Event Time Altitude Azimuth Distance (km) Brightness Sun altitude
Rises 21:22:55 0° 275° (W) 2,571 11.0 -36.8°
Enters shadow 21:24:13 - 266° (W) 2,184 10.5 -37.0°
Reaches altitude 10° 21:26:31 10° 240° (WSW) 1,717 - -37.3°
Maximum altitude 21:27:41 11° 222° (SW) 1,654 - -37.4°
Drops below altitude 10° 21:28:52 10° 205° (SSW) 1,733 - -37.6°
Sets 21:32:35 0° 169° (S) 2,645 - -38.0°
